カタログに戻る

SL-19 R/B

運用中PO
NORAD 28061·ROCKET BODY·🇷🇺 Russia

打ち上げ Oct 30, 2003 から Plesetsk Cosmodrome

Loading…

次のパス (今後24時間)

TLE

最新Source: Space-Track

元期: Sep 14, 2026, 02:37 UTC

1 28061U 03050B   26257.10942977  .00000175  00000-0  14513-3 0  9996
2 28061  99.5366 297.6283 0145045 315.3518  43.6037 13.97760190166749

AllMySatでSL-19 R/Bをリアルタイム追跡

Download on the App Store